User: anonymous   Login
Location: Caltech
(34.1382°N, 118.1253°W)
Time: 18:31:43
(UTC-07:00)
Language:

Cosmos 1626 - Orbit

View from above orbital plane
View from above orbital plane
View from above satellite
View from above satellite

Ground track
Ground track

The orbit data is extracted from the following two-line orbital elements,

1 15494U 85009A   16273.14481995  .00002552  00000-0  11142-3 0  9991
2 15494  82.4811 150.6969 0000993 209.4333 264.4340 15.21693278729072
Epoch (UTC): 29 September 2016 03:28:32
Eccentricity: 0.0000993
inclination: 82.4811°
perigee height: 500 km
apogee height: 501 km
right ascension of ascending node: 150.6969°
argument of perigee: 209.4333°
revolutions per day: 15.21693278
mean anomaly at epoch: 264.4340°
orbit number at epoch: 72907

The dashed part of the orbit path shows where the satellite is in the earth's shadow,  

DLR